| time (UTC) | temp F | wind direction | speed MPH | gust MPH | rain 1hr in | rain 24hr in | rain mn in | humidity % | barometer mb |
| 20260506072704 | 55 | 215 | 0.0 | 1.0 | 0.00 | 0.12 | 0.00 | 88 | 1007.5 |
| 20260506072204 | 55 | 215 | 1.0 | 2.0 | 0.00 | 0.12 | 0.00 | 88 | 1007.6 |
| 20260506071704 | 55 | 71 | 0.0 | 2.0 | 0.00 | 0.12 | 0.00 | 89 | 1007.6 |
| 20260506071204 | 55 | 205 | 2.0 | 3.0 | 0.00 | 0.12 | 0.00 | 88 | 1007.8 |
| 20260506070704 | 55 | 44 | 0.0 | 0.0 | 0.00 | 0.12 | 0.00 | 88 | 1007.6 |
| 20260506070204 | 55 | 175 | 0.0 | 0.0 | 0.00 | 0.12 | 0.00 | 88 | 1007.7 |
| 20260506062204 | 56 | 175 | 0.0 | 0.0 | 0.00 | 0.12 | 0.00 | 88 | 1008.1 |
| 20260506061205 | 56 | 175 | 0.0 | 0.0 | 0.00 | 0.12 | 0.00 | 88 | 1008.0 |
| 20260506060705 | 56 | 175 | 0.0 | 0.0 | 0.00 | 0.12 | 0.00 | 89 | 1008.0 |
| 20260506060205 | 56 | 156 | 0.0 | 0.0 | 0.00 | 0.12 | 0.00 | 89 | 1008.0 |
| 20260506051205 | 57 | 134 | 0.0 | 0.0 | 0.00 | 0.12 | 0.00 | 89 | 1008.2 |
| 20260506050705 | 57 | 134 | 0.0 | 0.0 | 0.00 | 0.12 | 0.00 | 89 | 1008.3 |
| 20260506050204 | 57 | 134 | 0.0 | 0.0 | 0.00 | 0.12 | 0.00 | 90 | 1008.3 |
| 20260506044704 | 57 | 107 | 1.0 | 3.0 | 0.00 | 0.12 | 0.00 | 90 | 1008.5 |
| 20260506044204 | 58 | 74 | 0.0 | 0.0 | 0.00 | 0.12 | 0.00 | 90 | 1008.5 |
| 20260506043704 | 58 | 60 | 0.0 | 0.0 | 0.00 | 0.12 | 0.00 | 90 | 1008.5 |
| 20260506043204 | 58 | 333 | 0.0 | 0.0 | 0.00 | 0.12 | 0.00 | 90 | 1008.6 |
| 20260506041705 | 58 | 317 | 0.0 | 0.0 | 0.00 | 0.12 | 0.00 | 89 | 1008.4 |
| 20260506040704 | 58 | 355 | 0.0 | 2.0 | 0.00 | 0.12 | 0.00 | 89 | 1008.3 |
| 20260506035204 | 59 | 319 | 1.0 | 3.0 | 0.02 | 0.12 | 0.12 | 89 | 1008.1 |
| 20260506034705 | 59 | 311 | 1.0 | 3.0 | 0.02 | 0.12 | 0.12 | 89 | 1007.9 |
| 20260506034205 | 59 | 319 | 1.0 | 2.0 | 0.02 | 0.12 | 0.12 | 89 | 1007.8 |
| 20260506033705 | 59 | 358 | 1.0 | 2.0 | 0.02 | 0.12 | 0.12 | 90 | 1007.7 |
| 20260506033205 | 59 | 0 | 2.0 | 3.0 | 0.02 | 0.12 | 0.12 | 90 | 1007.4 |
| 20260506032704 | 59 | 131 | 3.0 | 5.0 | 0.03 | 0.12 | 0.12 | 90 | 1007.5 |
| 20260506032204 | 60 | 116 | 0.0 | 3.0 | 0.05 | 0.12 | 0.12 | 91 | 1007.5 |
| 20260506031204 | 60 | 93 | 2.0 | 3.0 | 0.06 | 0.12 | 0.12 | 91 | 1007.2 |
| 20260506030704 | 60 | 69 | 0.0 | 0.0 | 0.06 | 0.12 | 0.12 | 91 | 1007.6 |
| 20260506025705 | 60 | 87 | 0.0 | 1.0 | 0.05 | 0.10 | 0.10 | 93 | 1007.9 |
| 20260506025204 | 60 | 88 | 0.0 | 1.0 | 0.05 | 0.10 | 0.10 | 93 | 1007.5 |
| 20260506024705 | 60 | 89 | 2.0 | 3.0 | 0.05 | 0.10 | 0.10 | 93 | 1007.1 |
| 20260506024204 | 60 | 48 | 1.0 | 2.0 | 0.05 | 0.10 | 0.10 | 94 | 1007.2 |
| 20260506023205 | 60 | 126 | 0.0 | 2.0 | 0.05 | 0.10 | 0.10 | 94 | 1007.2 |
| 20260506022704 | 61 | 97 | 1.0 | 2.0 | 0.04 | 0.09 | 0.09 | 94 | 1007.1 |
| 20260506022205 | 61 | 58 | 0.0 | 1.0 | 0.02 | 0.07 | 0.07 | 94 | 1007.4 |
| 20260506021704 | 61 | 52 | 0.0 | 1.0 | 0.01 | 0.06 | 0.06 | 94 | 1007.4 |
| 20260506021204 | 61 | 52 | 1.0 | 2.0 | 0.01 | 0.06 | 0.06 | 95 | 1007.0 |
| 20260506020704 | 61 | 58 | 1.0 | 3.0 | 0.01 | 0.06 | 0.06 | 94 | 1007.1 |
| 20260506020204 | 62 | 159 | 1.0 | 3.0 | 0.00 | 0.05 | 0.05 | 93 | 1007.4 |
| 20260506015204 | 62 | 187 | 2.0 | 3.0 | 0.00 | 0.05 | 0.05 | 93 | 1007.2 |
| 20260506014704 | 61 | 176 | 2.0 | 5.0 | 0.00 | 0.05 | 0.05 | 94 | 1007.1 |
| 20260506014204 | 61 | 154 | 2.0 | 3.0 | 0.00 | 0.05 | 0.05 | 94 | 1007.0 |
| 20260506013704 | 61 | 168 | 2.0 | 3.0 | 0.00 | 0.05 | 0.05 | 94 | 1007.0 |
| 20260506013204 | 61 | 178 | 0.0 | 3.0 | 0.00 | 0.05 | 0.05 | 94 | 1007.0 |
| 20260506011705 | 61 | 136 | 3.0 | 3.0 | 0.00 | 0.05 | 0.05 | 94 | 1006.9 |
| 20260506011204 | 61 | 131 | 5.0 | 6.0 | 0.00 | 0.05 | 0.05 | 94 | 1006.9 |
| 20260506010705 | 61 | 118 | 3.0 | 3.0 | 0.00 | 0.05 | 0.05 | 94 | 1006.8 |
| 20260506005704 | 61 | 171 | 1.0 | 3.0 | 0.00 | 0.05 | 0.05 | 93 | 1006.8 |
| 20260506005204 | 61 | 162 | 1.0 | 3.0 | 0.00 | 0.05 | 0.05 | 93 | 1006.7 |
| 20260506004704 | 61 | 192 | 1.0 | 2.0 | 0.00 | 0.05 | 0.05 | 93 | 1006.8 |
| 20260506003704 | 61 | 158 | 1.0 | 3.0 | 0.00 | 0.05 | 0.05 | 94 | 1006.5 |
| 20260506002704 | 61 | 147 | 2.0 | 3.0 | 0.00 | 0.05 | 0.05 | 94 | 1006.3 |
| 20260506002205 | 61 | 145 | 2.0 | 3.0 | 0.00 | 0.05 | 0.05 | 94 | 1006.1 |
| 20260506001204 | 62 | 149 | 0.0 | 1.0 | 0.00 | 0.05 | 0.05 | 94 | 1006.0 |
| 20260506000705 | 62 | 71 | 0.0 | 0.0 | 0.00 | 0.05 | 0.05 | 93 | 1005.9 |
| 20260506000205 | 62 | 142 | 1.0 | 3.0 | 0.00 | 0.05 | 0.05 | 93 | 1005.8 |
| 20260505235704 | 61 | 185 | 2.0 | 3.0 | 0.00 | 0.05 | 0.05 | 93 | 1005.7 |
| 20260505235204 | 61 | 177 | 3.0 | 6.0 | 0.00 | 0.05 | 0.05 | 94 | 1005.7 |
| 20260505234704 | 61 | 162 | 2.0 | 5.0 | 0.00 | 0.05 | 0.05 | 94 | 1005.6 |
| 20260505233704 | 61 | 139 | 6.0 | 9.0 | 0.00 | 0.05 | 0.05 | 94 | 1005.4 |
| 20260505232704 | 61 | 130 | 5.0 | 7.0 | 0.01 | 0.05 | 0.05 | 93 | 1005.4 |
| 20260505232205 | 62 | 128 | 5.0 | 7.0 | 0.01 | 0.05 | 0.05 | 93 | 1005.4 |
| 20260505230705 | 62 | 73 | 1.0 | 3.0 | 0.01 | 0.05 | 0.05 | 92 | 1005.7 |
| 20260505230204 | 62 | 205 | 2.0 | 3.0 | 0.01 | 0.05 | 0.05 | 92 | 1005.7 |
| 20260505225705 | 62 | 157 | 3.0 | 5.0 | 0.01 | 0.05 | 0.05 | 92 | 1005.8 |
| 20260505225204 | 62 | 158 | 3.0 | 5.0 | 0.02 | 0.05 | 0.05 | 92 | 1005.7 |
| 20260505224704 | 62 | 128 | 3.0 | 7.0 | 0.02 | 0.05 | 0.05 | 92 | 1005.6 |
| 20260505224205 | 63 | 120 | 7.0 | 9.0 | 0.03 | 0.05 | 0.05 | 90 | 1005.6 |
| 20260505223704 | 63 | 137 | 1.0 | 3.0 | 0.03 | 0.05 | 0.05 | 87 | 1006.1 |
| 20260505223204 | 63 | 299 | 1.0 | 5.0 | 0.03 | 0.05 | 0.05 | 88 | 1006.2 |
| 20260505222704 | 63 | 298 | 1.0 | 7.0 | 0.02 | 0.04 | 0.04 | 89 | 1006.1 |
| 20260505221704 | 63 | 295 | 3.0 | 8.0 | 0.02 | 0.04 | 0.04 | 90 | 1006.0 |
| 20260505221204 | 63 | 294 | 5.0 | 12.0 | 0.02 | 0.04 | 0.04 | 88 | 1006.0 |
| 20260505220705 | 64 | 292 | 4.0 | 12.0 | 0.02 | 0.04 | 0.04 | 88 | 1005.8 |
| 20260505220205 | 64 | 302 | 3.0 | 9.0 | 0.02 | 0.04 | 0.04 | 88 | 1005.6 |
| 20260505215705 | 65 | 286 | 3.0 | 7.0 | 0.02 | 0.04 | 0.04 | 85 | 1005.5 |
| 20260505215205 | 66 | 303 | 4.0 | 9.0 | 0.01 | 0.03 | 0.03 | 82 | 1005.5 |
| 20260505214705 | 68 | 311 | 6.0 | 9.0 | 0.01 | 0.03 | 0.03 | 78 | 1005.2 |
| 20260505214204 | 70 | 323 | 5.0 | 9.0 | 0.00 | 0.02 | 0.02 | 73 | 1004.7 |
| 20260505213205 | 76 | 1 | 4.0 | 8.0 | 0.00 | 0.02 | 0.02 | 58 | 1004.1 |
| 20260505212705 | 77 | 299 | 3.0 | 8.0 | 0.00 | 0.02 | 0.02 | 52 | 1004.1 |
| 20260505212204 | 78 | 275 | 5.0 | 12.0 | 0.00 | 0.02 | 0.02 | 50 | 1003.5 |
| 20260505211705 | 78 | 229 | 7.0 | 14.0 | 0.00 | 0.02 | 0.02 | 49 | 1003.3 |
| 20260505211205 | 78 | 234 | 12.0 | 18.0 | 0.00 | 0.02 | 0.02 | 49 | 1003.1 |
| 20260505210705 | 78 | 238 | 9.0 | 17.0 | 0.00 | 0.02 | 0.02 | 49 | 1003.0 |
| 20260505210205 | 78 | 237 | 6.0 | 12.0 | 0.00 | 0.02 | 0.02 | 50 | 1003.0 |
| 20260505205705 | 78 | 231 | 10.0 | 18.0 | 0.00 | 0.02 | 0.02 | 50 | 1003.0 |
| 20260505205205 | 79 | 229 | 9.0 | 16.0 | 0.00 | 0.02 | 0.02 | 50 | 1002.8 |
| 20260505204705 | 79 | 199 | 9.0 | 21.0 | 0.00 | 0.02 | 0.02 | 50 | 1002.8 |
| 20260505204205 | 79 | 229 | 11.0 | 18.0 | 0.00 | 0.02 | 0.02 | 51 | 1002.7 |
| 20260505203705 | 79 | 204 | 6.0 | 14.0 | 0.00 | 0.02 | 0.02 | 50 | 1002.5 |
| 20260505203205 | 79 | 228 | 12.0 | 20.0 | 0.00 | 0.02 | 0.02 | 50 | 1002.5 |
| 20260505202704 | 79 | 240 | 10.0 | 17.0 | 0.00 | 0.02 | 0.02 | 50 | 1002.5 |
| 20260505202206 | 79 | 215 | 7.0 | 21.0 | 0.00 | 0.02 | 0.02 | 50 | 1002.6 |
| 20260505201704 | 79 | 244 | 6.0 | 14.0 | 0.00 | 0.02 | 0.02 | 50 | 1002.6 |
| 20260505201205 | 79 | 233 | 7.0 | 16.0 | 0.00 | 0.02 | 0.02 | 50 | 1002.7 |
| 20260505200705 | 79 | 229 | 12.0 | 22.0 | 0.00 | 0.02 | 0.02 | 50 | 1002.7 |
| 20260505195205 | 79 | 230 | 9.0 | 15.0 | 0.00 | 0.02 | 0.02 | 51 | 1002.8 |
| 20260505194205 | 80 | 207 | 12.0 | 26.0 | 0.00 | 0.02 | 0.02 | 51 | 1002.7 |
| 20260505193705 | 81 | 201 | 8.0 | 21.0 | 0.00 | 0.02 | 0.02 | 50 | 1002.7 |
| 20260505192705 | 81 | 224 | 10.0 | 17.0 | 0.00 | 0.02 | 0.02 | 50 | 1002.9 |
| 20260505192205 | 79 | 211 | 9.0 | 20.0 | 0.00 | 0.02 | 0.02 | 52 | 1002.9 |
| 20260505191204 | 80 | 225 | 9.0 | 22.0 | 0.00 | 0.02 | 0.02 | 51 | 1003.0 |
| 20260505190705 | 79 | 215 | 11.0 | 22.0 | 0.00 | 0.02 | 0.02 | 52 | 1002.9 |
| 20260505190205 | 79 | 218 | 9.0 | 24.0 | 0.00 | 0.02 | 0.02 | 53 | 1003.0 |
| 20260505185705 | 79 | 204 | 10.0 | 18.0 | 0.00 | 0.02 | 0.02 | 53 | 1003.1 |
| 20260505184205 | 79 | 207 | 12.0 | 21.0 | 0.00 | 0.02 | 0.02 | 53 | 1003.2 |
| 20260505183705 | 80 | 224 | 9.0 | 21.0 | 0.00 | 0.02 | 0.02 | 53 | 1003.3 |
| 20260505183205 | 80 | 212 | 10.0 | 18.0 | 0.00 | 0.02 | 0.02 | 53 | 1003.3 |
| 20260505182705 | 80 | 207 | 8.0 | 23.0 | 0.00 | 0.02 | 0.02 | 53 | 1003.2 |
| 20260505182205 | 80 | 220 | 7.0 | 18.0 | 0.00 | 0.02 | 0.02 | 53 | 1003.3 |
| 20260505181705 | 80 | 198 | 13.0 | 25.0 | 0.00 | 0.02 | 0.02 | 52 | 1003.2 |
| 20260505181205 | 79 | 215 | 11.0 | 23.0 | 0.00 | 0.02 | 0.02 | 53 | 1003.5 |
| 20260505180705 | 79 | 221 | 9.0 | 26.0 | 0.00 | 0.02 | 0.02 | 53 | 1003.6 |
| 20260505180205 | 80 | 204 | 8.0 | 16.0 | 0.00 | 0.02 | 0.02 | 53 | 1003.5 |
| 20260505175205 | 78 | 211 | 13.0 | 21.0 | 0.00 | 0.02 | 0.02 | 54 | 1003.7 |
| 20260505174705 | 78 | 227 | 12.0 | 18.0 | 0.00 | 0.02 | 0.02 | 53 | 1003.8 |
| 20260505174205 | 79 | 213 | 7.0 | 22.0 | 0.00 | 0.02 | 0.02 | 55 | 1004.0 |
| 20260505173205 | 79 | 224 | 7.0 | 20.0 | 0.00 | 0.02 | 0.02 | 55 | 1004.3 |
| 20260505172704 | 80 | 211 | 8.0 | 17.0 | 0.00 | 0.02 | 0.02 | 53 | 1004.3 |
| 20260505172205 | 79 | 243 | 10.0 | 17.0 | 0.00 | 0.02 | 0.02 | 54 | 1004.3 |
| 20260505171705 | 79 | 252 | 8.0 | 26.0 | 0.00 | 0.02 | 0.02 | 54 | 1004.5 |
| 20260505170705 | 79 | 231 | 10.0 | 20.0 | 0.00 | 0.02 | 0.02 | 56 | 1004.6 |
| 20260505170205 | 79 | 225 | 10.0 | 18.0 | 0.00 | 0.02 | 0.02 | 56 | 1004.5 |
| 20260505165705 | 79 | 202 | 7.0 | 20.0 | 0.00 | 0.02 | 0.02 | 55 | 1004.7 |
| 20260505164205 | 78 | 194 | 9.0 | 18.0 | 0.00 | 0.02 | 0.02 | 55 | 1004.7 |
| 20260505163204 | 78 | 224 | 10.0 | 21.0 | 0.00 | 0.02 | 0.02 | 56 | 1005.0 |
| 20260505162705 | 78 | 230 | 7.0 | 16.0 | 0.00 | 0.02 | 0.02 | 56 | 1005.0 |
| 20260505162205 | 78 | 228 | 10.0 | 17.0 | 0.00 | 0.02 | 0.02 | 56 | 1005.1 |
| 20260505161705 | 77 | 203 | 8.0 | 15.0 | 0.00 | 0.02 | 0.02 | 56 | 1005.2 |
| 20260505161205 | 78 | 217 | 9.0 | 18.0 | 0.00 | 0.02 | 0.02 | 57 | 1005.2 |
| 20260505160706 | 77 | 190 | 10.0 | 17.0 | 0.00 | 0.02 | 0.02 | 59 | 1005.4 |
| 20260505160205 | 77 | 180 | 5.0 | 18.0 | 0.00 | 0.02 | 0.02 | 59 | 1005.6 |
| 20260505153205 | 74 | 204 | 6.0 | 14.0 | 0.00 | 0.02 | 0.02 | 60 | 1005.8 |
| 20260505152705 | 74 | 199 | 7.0 | 16.0 | 0.00 | 0.02 | 0.02 | 60 | 1005.8 |
| 20260505152205 | 74 | 202 | 7.0 | 15.0 | 0.00 | 0.02 | 0.02 | 61 | 1005.9 |
| 20260505151205 | 74 | 208 | 6.0 | 12.0 | 0.00 | 0.02 | 0.02 | 60 | 1006.1 |
| 20260505150705 | 74 | 208 | 5.0 | 12.0 | 0.00 | 0.02 | 0.02 | 61 | 1006.1 |
| 20260505150205 | 73 | 191 | 5.0 | 16.0 | 0.00 | 0.02 | 0.02 | 63 | 1006.1 |
| 20260505140205 | 70 | 233 | 6.0 | 14.0 | 0.00 | 0.02 | 0.02 | 64 | 1006.9 |
| 20260505130204 | 67 | 197 | 6.0 | 16.0 | 0.00 | 0.02 | 0.02 | 67 | 1007.0 |
| 20260505124705 | 65 | 210 | 6.0 | 16.0 | 0.00 | 0.02 | 0.02 | 69 | 1007.1 |
| 20260505123704 | 64 | 183 | 6.0 | 17.0 | 0.00 | 0.02 | 0.02 | 70 | 1007.1 |
| 20260505123205 | 63 | 195 | 6.0 | 14.0 | 0.00 | 0.02 | 0.02 | 70 | 1007.2 |
| 20260505121205 | 61 | 203 | 6.0 | 12.0 | 0.00 | 0.02 | 0.02 | 73 | 1007.4 |
| 20260505120705 | 61 | 196 | 3.0 | 10.0 | 0.00 | 0.02 | 0.02 | 71 | 1007.3 |
| 20260505120206 | 61 | 205 | 5.0 | 12.0 | 0.00 | 0.02 | 0.02 | 72 | 1007.2 |
| 20260505115705 | 61 | 180 | 3.0 | 13.0 | 0.00 | 0.02 | 0.02 | 73 | 1007.3 |
| 20260505115204 | 60 | 176 | 6.0 | 12.0 | 0.00 | 0.02 | 0.02 | 74 | 1007.2 |
| 20260505114704 | 60 | 206 | 6.0 | 13.0 | 0.00 | 0.02 | 0.02 | 74 | 1007.2 |
| 20260505114205 | 59 | 192 | 4.0 | 12.0 | 0.00 | 0.02 | 0.02 | 75 | 1007.2 |
| 20260505113705 | 59 | 207 | 3.0 | 12.0 | 0.00 | 0.02 | 0.02 | 77 | 1007.2 |
| 20260505113204 | 59 | 143 | 4.0 | 12.0 | 0.00 | 0.02 | 0.02 | 78 | 1007.1 |
| 20260505112705 | 59 | 151 | 5.0 | 12.0 | 0.00 | 0.02 | 0.02 | 80 | 1007.0 |
| 20260505112205 | 58 | 171 | 3.0 | 9.0 | 0.00 | 0.02 | 0.02 | 80 | 1007.1 |
| 20260505111704 | 58 | 171 | 3.0 | 9.0 | 0.01 | 0.02 | 0.02 | 82 | 1007.1 |
| 20260505110204 | 56 | 160 | 3.0 | 7.0 | 0.02 | 0.02 | 0.02 | 85 | 1007.3 |
| 20260505102205 | 58 | 104 | 1.0 | 6.0 | 0.02 | 0.02 | 0.02 | 78 | 1007.2 |
| 20260505101705 | 59 | 88 | 2.0 | 7.0 | 0.01 | 0.01 | 0.01 | 73 | 1007.5 |
| 20260505101205 | 60 | 206 | 4.0 | 7.0 | 0.00 | 0.00 | 0.00 | 67 | 1007.5 |
| 20260505100204 | 60 | 208 | 4.0 | 9.0 | 0.00 | 0.00 | 0.00 | 66 | 1007.3 |
| 20260505095706 | 60 | 213 | 3.0 | 12.0 | 0.00 | 0.00 | 0.00 | 66 | 1007.2 |
| 20260505095205 | 59 | 191 | 6.0 | 15.0 | 0.00 | 0.00 | 0.00 | 67 | 1006.7 |
| 20260505094704 | 60 | 213 | 6.0 | 10.0 | 0.00 | 0.00 | 0.00 | 67 | 1006.7 |
| 20260505094204 | 60 | 185 | 8.0 | 15.0 | 0.00 | 0.00 | 0.00 | 66 | 1006.5 |
| 20260505093704 | 60 | 208 | 6.0 | 18.0 | 0.00 | 0.00 | 0.00 | 66 | 1006.5 |
| 20260505093205 | 60 | 198 | 6.0 | 20.0 | 0.00 | 0.00 | 0.00 | 65 | 1006.5 |
| 20260505092705 | 60 | 200 | 7.0 | 16.0 | 0.00 | 0.00 | 0.00 | 65 | 1006.5 |
| 20260505092204 | 60 | 201 | 7.0 | 14.0 | 0.00 | 0.00 | 0.00 | 65 | 1006.4 |
| 20260505091705 | 60 | 202 | 9.0 | 14.0 | 0.00 | 0.00 | 0.00 | 65 | 1006.3 |
| 20260505091205 | 60 | 202 | 9.0 | 15.0 | 0.00 | 0.00 | 0.00 | 66 | 1006.2 |
| 20260505090204 | 60 | 206 | 6.0 | 15.0 | 0.00 | 0.00 | 0.00 | 65 | 1006.2 |
| 20260505085705 | 60 | 196 | 7.0 | 14.0 | 0.00 | 0.00 | 0.00 | 65 | 1006.3 |
| 20260505085205 | 60 | 209 | 6.0 | 18.0 | 0.00 | 0.00 | 0.00 | 65 | 1006.3 |
| 20260505084705 | 60 | 191 | 7.0 | 15.0 | 0.00 | 0.00 | 0.00 | 64 | 1006.3 |
| 20260505084204 | 60 | 199 | 5.0 | 12.0 | 0.00 | 0.00 | 0.00 | 65 | 1006.4 |
| 20260505083704 | 60 | 193 | 10.0 | 18.0 | 0.00 | 0.00 | 0.00 | 65 | 1006.4 |
| 20260505083205 | 60 | 201 | 6.0 | 16.0 | 0.00 | 0.00 | 0.00 | 65 | 1006.5 |
| 20260505082704 | 60 | 212 | 5.0 | 12.0 | 0.00 | 0.00 | 0.00 | 65 | 1006.6 |
| 20260505081704 | 60 | 203 | 6.0 | 13.0 | 0.00 | 0.00 | 0.00 | 65 | 1006.6 |
| 20260505081205 | 60 | 201 | 6.0 | 15.0 | 0.00 | 0.00 | 0.00 | 65 | 1006.7 |
| 20260505080204 | 60 | 197 | 7.0 | 12.0 | 0.00 | 0.00 | 0.00 | 65 | 1006.6 |
| 20260505075704 | 60 | 192 | 5.0 | 12.0 | 0.00 | 0.00 | 0.00 | 64 | 1006.6 |
| 20260505075204 | 60 | 224 | 5.0 | 13.0 | 0.00 | 0.00 | 0.00 | 64 | 1006.6 |
| 20260505074704 | 60 | 200 | 6.0 | 14.0 | 0.00 | 0.00 | 0.00 | 64 | 1006.5 |
| 20260505074204 | 60 | 188 | 7.0 | 14.0 | 0.00 | 0.00 | 0.00 | 64 | 1006.5 |
| 20260505073704 | 60 | 187 | 6.0 | 13.0 | 0.00 | 0.00 | 0.00 | 64 | 1006.5 |